RH
74 74 78 86 80 74 70 69 71 66 64 61 63 64 68 70 72 93 93 92 92 93 86 83 74 74 74
79 81 80 83 90 87 77 76 79 77 69 64 68 67 83 79 80 95 94 97 96 93 86 78 75 75 74
83 81 84 83 86 91 93 92 86 85 83 77 81 73 92 94 100 98 99 98 94 94 86 79 77 77 74
84 78 78 78 88 96 96 98 98 96 96 92 89 100 100 100 98 100 100 100 99 94 86 81 80 79 75
86 84 87 85 93 86 97 95 96 91 100 97 100 100 100 100 100 99 100 99 98 99 88 81 81 80 77
91 90 86 86 87 90 95 97 97 91 100 99 100 100 100 100 100 99 98 99 98 90 84 78 80 80 78
95 86 88 87 94 94 88 96 91 96 100 98 100 100 100 100 98 98 98 99 96 90 82 81 80 78 76
92 91 93 97 98 99 99 98 100 100 100 98 100 98 100 100 100 99 99 100 97 83 81 82 80 79 77
94 96 99 99 98 100 97 99 98 99 100 94 100 100 100 100 100 99 99 99 82 75 77 79 80 78 77
96 96 99 100 100 100 100 98 99 99 99 94 99 96 97 98 99 99 100 81 70 73 75 76 80 78 78
99 99 100 99 99 100 100 100 100 100 98 93 98 98 97 96 97 98 86 68 70 71 74 80 78 77 76
98 97 99 99 99 100 100 100 100 96 100 98 97 97 96 94 88 70 60 61 70 74 76 70 72 71 70
96 96 99 100 99 99 99 99 98 98 99 99 96 97 95 93 84 78 71 63 53 50 48 46 45 56 66
98 98 100 98 98 97 98 98 97 97 97 97 98 76 87 74 77 92 68 72 67 63 60 63 60 56 54
99 98 99 98 97 97 97 97 97 96 97 96 88 64 56 61 89 73 79 77 74 76 75 64 54 52 54
98 99 98 97 97 97 97 97 96 96 96 100 96 78 59 67 85 84 89 85 73 70 78 83 75 62 65
98 98 98 97 98 97 97 97 97 97 100 100 93 87 87 73 55 95 77 81 82 84 80 85 79 70 72
Wind_Speed
30 34 34 35 40 42 42 45 48 49 47 47 50 48 47 47 46 45 42 33 29 27 26 24 21 21 22
33 29 31 33 38 38 46 48 45 47 48 47 48 48 46 47 46 44 39 30 28 26 24 21 20 23 22
24 31 29 30 33 37 35 37 42 49 51 48 44 48 47 47 45 45 36 30 29 26 23 22 21 23 22
26 27 27 27 26 22 19 27 29 29 35 38 37 40 41 38 37 34 31 28 26 25 23 23 23 23 22
14 22 19 16 10 19 17 18 25 35 31 30 28 34 40 39 36 35 29 29 26 21 23 22 22 23 22
18 14 21 24 24 20 20 7 6 23 22 24 28 25 26 30 37 34 30 23 22 22 26 22 24 24 21
26 27 27 30 28 23 20 19 13 12 21 10 25 20 29 31 30 27 23 23 23 25 24 25 24 22 20
32 37 36 36 33 33 31 27 13 12 20 5 17 14 24 30 25 22 21 23 24 25 27 24 22 20 20
35 39 41 41 40 34 22 8 5 4 20 8 8 6 14 22 26 22 22 22 25 25 25 23 21 20 20
37 35 34 33 32 26 27 10 4 2 14 9 7 8 3 5 20 20 20 22 23 23 22 21 21 21 21
31 29 24 28 28 22 19 18 5 2 15 18 8 6 5 4 6 19 23 21 19 20 18 18 19 21 22
26 23 21 21 22 13 7 5 6 7 25 14 8 9 5 3 3 12 15 17 19 19 19 18 16 17 19
21 23 22 19 8 0 6 14 21 20 18 11 23 21 13 4 4 6 9 11 14 16 15 17 20 19 18
22 27 23 8 3 2 5 12 15 17 18 18 15 13 8 13 9 7 11 5 13 14 13 12 13 15 16
23 21 15 4 3 7 6 6 5 4 11 14 11 11 10 11 6 10 11 6 11 13 9 10 14 15 16
24 18 12 6 6 5 6 7 5 8 9 6 7 5 3 2 3 9 7 7 8 10 12 9 13 15 15
21 18 10 7 7 6 6 6 6 9 8 8 4 3 3 1 2 7 6 7 8 8 10 13 8 11 11
Wind_Direction
286 283 271 264 265 262 259 254 253 256 255 258 258 252 247 241 234 222 215 206 210 213 217 220 225 226 230
293 288 278 269 259 252 254 253 250 253 258 257 255 251 242 236 228 222 211 203 205 212 213 217 224 229 228
289 291 285 278 271 259 252 252 250 257 257 253 250 249 234 227 217 214 198 198 202 206 206 209 220 227 226
286 286 288 290 273 263 260 256 253 254 264 252 244 232 226 209 204 197 193 194 203 198 208 207 209 223 225
300 299 278 284 277 273 250 260 245 258 247 251 229 216 207 204 192 190 194 192 199 204 214 210 210 219 221
300 294 294 292 289 289 272 248 252 242 228 238 218 207 197 197 192 188 189 197 196 208 217 212 213 216 217
296 291 297 299 299 286 289 266 256 233 199 221 201 198 199 192 189 189 196 198 201 210 213 213 211 215 219
284 287 286 288 288 289 287 286 251 213 184 184 189 196 191 190 188 194 196 203 208 207 210 208 212 217 218
288 288 284 284 282 280 276 243 238 235 187 140 169 138 165 184 194 194 201 209 208 207 207 210 213 215 220
309 297 288 284 281 280 267 248 214 198 198 145 147 148 143 157 188 194 206 212 207 209 210 213 209 216 223
308 308 302 297 297 291 283 260 201 231 193 166 152 129 76 116 148 197 208 203 205 209 206 202 209 220 223
306 310 305 300 297 287 285 268 221 204 166 169 133 130 118 115 146 170 174 182 186 185 191 201 207 217 223
308 307 302 297 275 162 108 113 110 107 110 115 147 140 136 120 142 150 141 188 191 198 203 213 218 217 213
305 305 299 281 249 177 110 99 87 68 81 88 118 132 121 124 122 138 150 149 186 190 200 206 209 212 216
310 302 294 258 185 176 134 61 78 92 87 92 99 100 107 142 116 153 169 181 174 168 203 229 231 231 234
312 299 284 222 192 172 120 103 118 116 108 118 117 86 84 110 200 147 167 188 199 206 213 220 256 253 252
312 305 280 213 193 132 121 118 109 104 117 125 115 84 70 77 35 210 170 191 193 215 236 234 231 252 260